Visibility
15.0 15.0 15.0 15.0 15.0 15.0 11.5 8.5 14.9 15.0 15.0 15.0 15.0 15.0 15.0 15.0 15.0 14.2 4.6 15.0 12.2 2.9 5.2 2.4 2.3 2.7 4.1 5.5 5.9 13.9 15.0 15.0 15.0 15.0 15.0 15.0 15.0 15.0
15.0 15.0 15.0 15.0 15.0 15.0 15.0 14.7 9.6 14.4 15.0 15.0 15.0 15.0 15.0 15.0 15.0 15.0 0.4 0.2 15.0 15.0 4.8 3.1 1.2 1.8 3.5 6.1 6.4 7.2 8.2 15.0 15.0 15.0 15.0 15.0 15.0 15.0
15.0 15.0 15.0 15.0 15.0 15.0 15.0 15.0 14.5 9.9 13.1 14.2 15.0 15.0 15.0 15.0 0.2 8.3 0.2 0.1 0.2 8.4 0.4 3.4 3.0 2.8 4.6 5.6 4.8 10.0 6.4 10.9 15.0 15.0 15.0 15.0 15.0 15.0
15.0 15.0 15.0 15.0 15.0 15.0 15.0 15.0 15.0 14.9 14.8 14.8 15.0 15.0 15.0 15.0 0.3 0.1 0.1 5.8 0.3 14.7 9.4 6.7 4.6 4.7 3.6 4.3 3.2 6.1 11.6 15.0 15.0 15.0 15.0 15.0 15.0 15.0
15.0 15.0 15.0 15.0 15.0 15.0 15.0 13.7 15.0 15.0 15.0 14.3 4.2 15.0 5.6 0.1 0.1 1.6 0.2 0.1 11.9 13.6 15.0 7.7 13.6 5.6 3.6 3.4 3.2 5.1 8.2 14.0 15.0 15.0 15.0 15.0 15.0 15.0
15.0 15.0 15.0 15.0 15.0 15.0 15.0 15.0 9.2 15.0 15.0 8.1 15.0 15.0 0.5 0.4 9.8 0.1 0.1 0.4 0.1 12.0 13.7 10.8 15.0 9.6 6.9 6.2 4.9 8.4 12.7 15.0 15.0 15.0 15.0 15.0 15.0 15.0
15.0 15.0 15.0 15.0 15.0 15.0 15.0 15.0 12.7 13.4 15.0 12.4 0.4 2.6 0.1 0.1 0.0 7.1 0.4 9.4 6.5 13.5 11.3 13.5 15.0 14.8 13.7 14.2 14.8 15.0 15.0 15.0 15.0 15.0 15.0 15.0 15.0 15.0
15.0 15.0 15.0 15.0 15.0 15.0 15.0 15.0 15.0 15.0 14.3 0.8 15.0 15.0 0.4 0.4 8.2 0.8 0.3 0.2 0.1 6.5 14.2 15.0 11.9 15.0 15.0 15.0 15.0 15.0 15.0 15.0 15.0 15.0 15.0 15.0 15.0 15.0
11.0 15.0 15.0 15.0 15.0 15.0 15.0 15.0 15.0 14.7 14.5 5.8 15.0 15.0 15.0 15.0 2.9 3.0 15.0 15.0 11.1 7.3 11.4 13.3 15.0 15.0 15.0 15.0 15.0 15.0 15.0 15.0 15.0 15.0 15.0 15.0 15.0 15.0
15.0 15.0 15.0 15.0 15.0 15.0 15.0 15.0 15.0 15.0 15.0 11.9 15.0 15.0 15.0 15.0 5.0 10.7 14.7 8.5 7.7 15.0 15.0 9.2 3.9 0.7 3.4 14.3 15.0 15.0 15.0 15.0 15.0 15.0 15.0 15.0 15.0 15.0
15.0 15.0 15.0 15.0 15.0 15.0 15.0 15.0 0.2 0.1 4.5 6.5 14.7 11.7 15.0 15.0 14.7 9.4 5.0 9.4 4.0 14.6 15.0 13.6 0.4 2.5 0.7 15.0 15.0 15.0 15.0 15.0 15.0 15.0 15.0 15.0 15.0 15.0
13.0 15.0 15.0 15.0 15.0 15.0 15.0 15.0 0.1 0.0 0.1 0.1 0.1 0.4 5.6 2.4 3.8 3.7 10.7 10.2 2.8 0.9 0.4 0.2 6.1 15.0 15.0 15.0 15.0 15.0 15.0 15.0 15.0 15.0 15.0 15.0 15.0 15.0
0.1 11.1 15.0 15.0 15.0 15.0 15.0 15.0 0.1 0.4 1.2 1.1 0.6 0.2 0.7 4.1 8.1 11.4 13.8 15.0 9.0 14.2 15.0 15.0 15.0 15.0 15.0 15.0 15.0 15.0 15.0 15.0 15.0 15.0 15.0 15.0 15.0 15.0
0.1 10.9 6.9 15.0 15.0 15.0 15.0 11.0 8.5 10.6 11.4 7.6 14.7 9.1 11.1 6.4 1.4 5.4 15.0 15.0 14.1 15.0 15.0 15.0 15.0 15.0 15.0 15.0 15.0 15.0 15.0 15.0 15.0 15.0 15.0 15.0 15.0 15.0
15.0 1.7 6.5 13.5 15.0 3.3 5.9 6.0 10.9 5.7 5.4 1.4 0.5 0.5 0.4 0.6 13.7 14.7 15.0 15.0 15.0 15.0 15.0 15.0 15.0 15.0 15.0 15.0 15.0 15.0 15.0 15.0 15.0 15.0 15.0 15.0 15.0 15.0
1.0 11.7 5.0 6.3 7.0 4.8 0.2 0.2 5.6 5.2 4.4 1.4 0.7 0.4 0.6 0.2 0.1 1.2 8.3 15.0 15.0 15.0 15.0 15.0 15.0 15.0 15.0 15.0 15.0 15.0 15.0 15.0 15.0 15.0 15.0 15.0 15.0 15.0
0.0 0.0 0.1 0.1 0.1 0.1 0.1 0.1 0.7 0.6 0.9 0.9 0.2 0.1 0.1 0.3 6.5 15.0 15.0 15.0 15.0 15.0 15.0 15.0 15.0 15.0 15.0 15.0 15.0 15.0 15.0 15.0 15.0 15.0 15.0 15.0 15.0 15.0
0.1 0.1 0.1 0.1 0.1 0.1 0.1 0.1 0.1 0.3 0.2 0.1 0.1 0.3 0.8 10.9 15.0 15.0 15.0 15.0 15.0 15.0 15.0 15.0 15.0 15.0 15.0 15.0 15.0 15.0 15.0 15.0 15.0 15.0 15.0 15.0 15.0 15.0
0.1 0.1 0.1 0.1 0.1 0.1 0.1 0.1 0.1 0.1 0.1 0.1 0.1 1.7 15.0 15.0 15.0 15.0 15.0 15.0 15.0 14.2 7.4 15.0 15.0 15.0 15.0 5.6 15.0 15.0 15.0 15.0 15.0 15.0 15.0 15.0 15.0 15.0
0.1 0.1 0.1 0.1 0.1 0.1 0.1 0.1 0.1 0.1 0.1 0.2 2.9 15.0 15.0 15.0 15.0 15.0 15.0 15.0 15.0 11.9 6.2 15.0 11.7 6.0 12.1 12.3 12.1 10.9 15.0 15.0 15.0 13.3 15.0 15.0 15.0 15.0
0.2 0.2 0.1 0.1 0.1 0.1 0.1 0.1 0.1 0.1 0.7 15.0 15.0 15.0 15.0 15.0 15.0 15.0 15.0 15.0 15.0 15.0 10.5 5.3 3.2 14.5 7.8 9.4 15.0 15.0 15.0 15.0 15.0 15.0 14.0 4.5 10.0 15.0
0.1 0.2 0.1 0.1 0.1 0.1 0.1 0.2 0.8 13.3 15.0 15.0 15.0 15.0 15.0 15.0 15.0 15.0 15.0 15.0 15.0 15.0 8.3 4.8 6.3 9.0 14.6 15.0 12.7 15.0 15.0 15.0 15.0 15.0 15.0 15.0 7.9 2.2
0.1 0.1 0.1 0.1 0.1 0.1 0.6 15.0 15.0 15.0 15.0 15.0 15.0 15.0 15.0 15.0 15.0 15.0 15.0 15.0 15.0 15.0 15.0 4.9 7.4 15.0 12.6 14.7 6.3 15.0 15.0 15.0 15.0 15.0 15.0 15.0 15.0 15.0